Weather History for South Lake Tahoe, CA

Change the Weather History Date:

Monday, March 25, 2013

  Actual Average Record
Temperature  
Mean Temperature 43 °F 37 °F  
Max Temperature 60 °F 50 °F 64 °F (1988)
Min Temperature 25 °F 24 °F 3 °F (1995)
Degree Days  
Heating Degree Days 22 28  
Month to date heating degree days 636 749  
Since 1 July heating degree days 5654 5986  
Cooling Degree Days 0 0  
Month to date cooling degree days 0 0  
Year to date cooling degree days 0 0  
Moisture  
Dew Point 17 °F    
Average Humidity 39    
Maximum Humidity 68    
Minimum Humidity 10    
Precipitation  
Precipitation T in - 1.20 in (1975)
Month to date precipitation 0.89  
Year to date precipitation 1.79  
Sea Level Pressure  
Sea Level Pressure 29.96 in    
Wind  
Wind Speed 3 mph (South)    
Max Wind Speed 21 mph    
Max Gust Speed 28 mph    
Visibility 10 miles    
Events      
T = Trace of Precipitation, MM = Missing Value Source: NWS Daily Summary

Daily Weather History Graph

Daily Weather History Graph

Search for Another Location

Airport:

Trip Planner

Search our weather history database for the weather conditions in past years. The results will help you decide how hot, cold, wet, or windy it might be!

Date:

Astronomy

Mar. 25, 2013 Rise Set
Actual Time 6:55 AM PDT 7:17 PM PDT
Civil Twilight 6:28 AM PDT 7:43 PM PDT
Nautical Twilight 5:57 AM PDT 8:15 PM PDT
Astronomical Twilight 5:25 AM PDT 8:47 PM PDT
Moon 5:54 PM PDT (3/25) 5:40 AM PDT (3/25)
Length of Visible Light 13h 15m
Length of Day
12h 22m
Waxing Gibbous, 97% of the Moon is Illuminated
Mar 25
Waxing Gibbous
Mar 27
Full
Apr 2
Last Quarter
Apr 10
New
Apr 18
First Quarter

Hourly Weather History & Observations

Time (PDT) Temp. Windchill Dew Point Humidity Pressure Visibility Wind Dir Wind Speed Gust Speed Precip Events Conditions
12:53 AM 35.1 °F 32.2 °F 21.0 °F 57% 29.98 in 10.0 mi SW 3.5 mph - N/A   Clear
1:53 AM 32.0 °F - 19.0 °F 59% 29.99 in 10.0 mi Calm Calm - N/A   Clear
2:53 AM 30.0 °F - 18.0 °F 61% 29.99 in 10.0 mi Calm Calm - N/A   Clear
3:53 AM 28.9 °F - 18.0 °F 64% 29.99 in 10.0 mi Calm Calm - N/A   Clear
4:53 AM 28.0 °F - 18.0 °F 66% 29.99 in 10.0 mi Calm Calm - N/A   Clear
5:53 AM 27.0 °F - 17.1 °F 66% 30.00 in 10.0 mi Calm Calm - N/A   Clear
6:53 AM 26.1 °F - 16.0 °F 66% 30.02 in 10.0 mi Calm Calm - N/A   Clear
7:53 AM 26.1 °F - 17.1 °F 69% 30.04 in 10.0 mi Calm Calm - N/A   Clear
8:53 AM 33.1 °F - 17.1 °F 52% 30.02 in 10.0 mi Calm Calm - N/A   Clear
9:53 AM 43.0 °F 40.3 °F 19.0 °F 38% 30.00 in 10.0 mi NE 4.6 mph - N/A   Clear
10:53 AM 50.0 °F - 23.0 °F 35% 29.99 in 10.0 mi NE 3.5 mph - N/A   Clear
11:53 AM 55.9 °F - -0.0 °F 10% 29.96 in 10.0 mi SSW 10.4 mph 23.0 mph N/A   Clear
12:53 PM 57.9 °F - 3.0 °F 11% 29.94 in 10.0 mi Variable 6.9 mph 20.7 mph N/A   Clear
1:53 PM 60.1 °F - 10.0 °F 14% 29.93 in 10.0 mi South 12.7 mph 23.0 mph N/A   Clear
2:53 PM 57.0 °F - 12.9 °F 18% 29.93 in 10.0 mi Variable 6.9 mph 23.0 mph N/A   Clear
3:53 PM 55.9 °F - 12.9 °F 18% 29.92 in 10.0 mi Variable 6.9 mph 17.3 mph N/A   Clear
4:53 PM 54.0 °F - 15.1 °F 22% 29.93 in 10.0 mi South 8.1 mph - N/A   Clear
5:53 PM 52.0 °F - 18.0 °F 26% 29.93 in 10.0 mi SSW 9.2 mph 20.7 mph N/A   Clear
6:53 PM 48.9 °F - 21.0 °F 33% 29.95 in 10.0 mi SSW 8.1 mph - N/A   Clear
7:53 PM 46.9 °F - 27.0 °F 46% 29.96 in 10.0 mi South 6.9 mph - N/A   Clear
8:53 PM 44.1 °F 42.5 °F 28.9 °F 55% 29.94 in 10.0 mi SSW 3.5 mph - N/A   Partly Cloudy
9:53 PM 44.1 °F 40.8 °F 19.9 °F 38% 29.91 in 10.0 mi SE 5.8 mph - N/A   Scattered Clouds
10:53 PM 42.1 °F - 12.9 °F 31% 29.91 in 10.0 mi Calm Calm - N/A   Clear
11:53 PM 43.0 °F 40.3 °F 17.1 °F 35% 29.88 in 10.0 mi South 4.6 mph - N/A   Partly Cloudy